Location: ????????
(56.1167°N, 38.6333°E)
Time: 11:00:54
(UTC+00:00)

Cosmos 1943 Rocket - Pass Details

Date: 18 November 2025
Orbit: 812 x 841 km, 71.0° (Epoch: 10 December)

Event Time Altitude Azimuth Distance (km) Brightness Sun altitude
Rises 14:00:43 0° 166° (SSE) 3,372 5.5 -6.7°
Reaches altitude 10° 14:03:39 10° 151° (SSE) 2,439 4.6 -7.1°
Maximum altitude 14:07:50 22° 103° (ESE) 1,738 3.4 -7.6°
Drops below altitude 10° 14:12:00 10° 54° (NE) 2,437 4.0 -8.2°
Enters shadow 14:12:17 - 52° (NE) 2,518 4.0 -8.2°
